Delta, CO

4:49 AM MDT on June 25, 2017 (GMT -0600)
Delta

Weather History for KAJZ - December, 2013

Change the Weather History Date:

Tuesday, December 17, 2013

  Actual Average (KMTJ) Record (KMTJ)
Temperature  
Mean Temperature 26 °F -  
Max Temperature 41 °F 35 °F 46 °F (2006)
Min Temperature 12 °F 13 °F 3 °F (1996)
Degree Days  
Heating Degree Days 38    
Moisture  
Dew Point 19 °F    
Average Humidity 76    
Maximum Humidity 90    
Minimum Humidity 48    
Precipitation  
Precipitation 0.00 in - - ()
Sea Level Pressure  
Sea Level Pressure 30.47 in    
Wind  
Wind Speed 1 mph (NE)    
Max Wind Speed 7 mph    
Max Gust Speed -    
Visibility 10 miles    
Events      
Averages and records for this station are not official NWS values.
T = Trace of Precipitation, MM = Missing Value Source: NWS Daily Summary

Daily Weather History Graph

Daily Weather History Graph

Search for Another Location

Airport or City:

Trip Planner

Search our weather history database for the weather conditions in past years. The results will help you decide how hot, cold, wet, or windy it might be!

Date:

Astronomy

Dec. 17, 2013 Rise Set
Actual Time 7:24 AM MST 4:52 PM MST
Civil Twilight 6:54 AM MST 5:22 PM MST
Nautical Twilight 6:21 AM MST 5:55 PM MST
Astronomical Twilight 5:49 AM MST 6:28 PM MST
Moon 5:34 PM MST (12/17) 7:24 AM MST (12/17)
Length of Visible Light 10h 27m
Length of Day
9h 27m
Full, 100% of the Moon is Illuminated
Dec 17
Full
Dec 25
Last Quarter
Jan 1
New
Jan 7
First Quarter
Jan 15
Full

Hourly Weather History & Observations

Time (MST) Temp. Windchill Dew Point Humidity Pressure Visibility Wind Dir Wind Speed Gust Speed Precip Events Conditions
12:15 AM 20.7 °F - 17.2 °F 87% 30.52 in 10.0 mi Calm Calm - N/A   Clear
12:35 AM 18.9 °F - 15.8 °F 88% 30.52 in 10.0 mi Calm Calm - N/A   Clear
12:55 AM 18.5 °F 11.7 °F 15.4 °F 88% 30.52 in 10.0 mi NE 4.6 mph - N/A   Clear
1:15 AM 18.3 °F 11.5 °F 14.9 °F 86% 30.51 in 10.0 mi NE 4.6 mph - N/A   Clear
1:35 AM 20.3 °F - 16.9 °F 87% 30.51 in 10.0 mi Calm Calm - N/A   Clear
1:55 AM 19.6 °F - 16.2 °F 87% 30.52 in 10.0 mi Calm Calm - N/A   Clear
2:15 AM 18.5 °F - 15.4 °F 88% 30.52 in 10.0 mi Calm Calm - N/A   Clear
2:35 AM 16.3 °F - 13.3 °F 88% 30.53 in 10.0 mi Calm Calm - N/A   Clear
2:55 AM 16.2 °F - 13.8 °F 90% 30.54 in 10.0 mi Calm Calm - N/A   Clear
3:15 AM 16.7 °F 9.6 °F 14.0 °F 89% 30.53 in 10.0 mi NNW 4.6 mph - N/A   Clear
3:35 AM 17.4 °F 12.1 °F 14.5 °F 88% 30.53 in 10.0 mi North 3.5 mph - N/A   Clear
3:55 AM 17.2 °F - 14.4 °F 88% 30.53 in 10.0 mi Calm Calm - N/A   Clear
4:15 AM 14.0 °F 8.2 °F 11.3 °F 89% 30.53 in 10.0 mi SW 3.5 mph - N/A   Clear
4:35 AM 14.0 °F - 11.7 °F 90% 30.53 in 10.0 mi Calm Calm - N/A   Clear
4:55 AM 14.5 °F - 12.0 °F 90% 30.53 in 10.0 mi Calm Calm - N/A   Clear
5:15 AM 14.2 °F 8.4 °F 11.5 °F 89% 30.53 in 10.0 mi NNW 3.5 mph - N/A   Clear
5:35 AM 14.9 °F - 12.2 °F 89% 30.53 in 10.0 mi Calm Calm - N/A   Clear
5:55 AM 14.9 °F 9.2 °F 12.2 °F 89% 30.53 in 10.0 mi NNE 3.5 mph - N/A   Clear
6:15 AM 16.2 °F 7.6 °F 13.5 °F 89% 30.54 in 10.0 mi North 5.8 mph - N/A   Clear
6:35 AM 16.9 °F 7.4 °F 14.0 °F 88% 30.54 in 10.0 mi NNE 6.9 mph - N/A   Clear
6:55 AM 17.2 °F 10.2 °F 14.2 °F 88% 30.54 in 10.0 mi NNE 4.6 mph - N/A   Clear
7:15 AM 14.2 °F - 10.9 °F 87% 30.56 in 10.0 mi Calm Calm - N/A   Clear
7:35 AM 12.7 °F - 9.7 °F 88% 30.56 in 10.0 mi Calm Calm - N/A   Clear
7:55 AM 14.4 °F - 11.3 °F 88% 30.56 in 10.0 mi Calm Calm - N/A   Clear
8:15 AM 17.4 °F - 14.5 °F 88% 30.56 in 10.0 mi Calm Calm - N/A   Clear
8:35 AM 18.7 °F - 14.7 °F 85% 30.56 in 10.0 mi Calm Calm - N/A   Clear
8:55 AM 18.0 °F - 14.4 °F 86% 30.57 in 10.0 mi Calm Calm - N/A   Clear
9:15 AM 19.4 °F - 15.4 °F 85% 30.57 in 10.0 mi Calm Calm - N/A   Clear
9:35 AM 21.2 °F - 16.7 °F 83% 30.57 in 10.0 mi Calm Calm - N/A   Clear
9:55 AM 23.2 °F - 17.8 °F 80% 30.58 in 10.0 mi Calm Calm - N/A   Clear
10:15 AM 25.0 °F - 18.7 °F 77% 30.57 in 10.0 mi Calm Calm - N/A   Clear
10:35 AM 26.4 °F - 18.9 °F 73% 30.57 in 10.0 mi Calm Calm - N/A   Clear
10:55 AM 28.2 °F - 19.6 °F 70% 30.55 in 10.0 mi Calm Calm - N/A   Clear
11:15 AM 29.7 °F 26.1 °F 19.8 °F 67% 30.54 in 10.0 mi East 3.5 mph - N/A   Clear
11:35 AM 31.1 °F 27.7 °F 20.8 °F 66% 30.52 in 10.0 mi East 3.5 mph - N/A   Clear
11:55 AM 32.0 °F 28.7 °F 21.6 °F 65% 30.50 in 10.0 mi East 3.5 mph - N/A   Clear
12:15 PM 33.8 °F - 22.1 °F 62% 30.49 in 10.0 mi Calm Calm - N/A   Clear
12:35 PM 35.1 °F - 22.6 °F 61% 30.47 in 10.0 mi Calm Calm - N/A   Clear
12:55 PM 36.3 °F - 23.0 °F 59% 30.46 in 10.0 mi Calm Calm - N/A   Clear
1:15 PM 37.8 °F - 22.8 °F 55% 30.45 in 10.0 mi Calm Calm - N/A   Clear
1:35 PM 38.7 °F - 22.3 °F 52% 30.44 in 10.0 mi Calm Calm - N/A   Clear
1:55 PM 39.4 °F - 22.8 °F 52% 30.43 in 10.0 mi Calm Calm - N/A   Clear
2:15 PM 41.0 °F - 22.6 °F 48% 30.42 in 10.0 mi Calm Calm - N/A   Clear
2:35 PM 41.5 °F - 23.0 °F 48% 30.41 in 10.0 mi Calm Calm - N/A   Clear
2:55 PM 41.9 °F 40.0 °F 23.5 °F 48% 30.41 in 10.0 mi SSW 3.5 mph - N/A   Clear
3:15 PM 41.4 °F 38.4 °F 23.4 °F 49% 30.41 in 10.0 mi SW 4.6 mph - N/A   Clear
3:35 PM 41.2 °F 39.2 °F 23.4 °F 49% 30.41 in 10.0 mi West 3.5 mph - N/A   Clear
3:55 PM 40.8 °F - 23.5 °F 50% 30.40 in 10.0 mi Calm Calm - N/A   Clear
4:15 PM 40.1 °F - 23.7 °F 52% 30.39 in 10.0 mi Calm Calm - N/A   Clear
4:35 PM 37.9 °F - 23.9 °F 57% 30.39 in 7.0 mi Calm Calm - N/A   Clear
4:55 PM 35.4 °F - 23.7 °F 62% 30.39 in 10.0 mi Calm Calm - N/A   Clear
5:15 PM 33.8 °F - 23.7 °F 67% 30.38 in 10.0 mi Calm Calm - N/A   Clear
5:35 PM 33.4 °F - 23.7 °F 68% 30.39 in 10.0 mi Calm Calm - N/A   Clear
5:55 PM 32.2 °F - 23.5 °F 70% 30.39 in 10.0 mi Calm Calm - N/A   Clear
6:15 PM 31.1 °F - 23.0 °F 72% 30.39 in 10.0 mi Calm Calm - N/A   Clear
6:35 PM 31.6 °F - 22.8 °F 70% 30.39 in 10.0 mi Calm Calm - N/A   Clear
6:55 PM 30.0 °F 26.5 °F 22.5 °F 73% 30.39 in 10.0 mi SE 3.5 mph - N/A   Clear
7:15 PM 29.8 °F 26.3 °F 22.5 °F 74% 30.39 in 10.0 mi SE 3.5 mph - N/A   Clear
7:35 PM 29.7 °F - 22.3 °F 74% 30.38 in 10.0 mi Calm Calm - N/A   Clear
7:55 PM 29.3 °F - 22.3 °F 75% 30.38 in 10.0 mi Calm Calm - N/A   Clear
8:15 PM 27.9 °F - 22.3 °F 80% 30.38 in 10.0 mi Calm Calm - N/A   Clear
8:35 PM 27.3 °F - 21.9 °F 80% 30.38 in 10.0 mi Calm Calm - N/A   Clear
8:55 PM 28.0 °F - 22.1 °F 78% 30.38 in 10.0 mi Calm Calm - N/A   Clear
9:15 PM 28.0 °F - 22.1 °F 78% 30.38 in 10.0 mi Calm Calm - N/A   Clear
9:35 PM 25.3 °F 21.1 °F 20.5 °F 82% 30.38 in 10.0 mi SSE 3.5 mph - N/A   Clear
9:55 PM 23.7 °F - 20.3 °F 87% 30.38 in 10.0 mi Calm Calm - N/A   Clear
10:15 PM 23.0 °F - 20.3 °F 89% 30.38 in 10.0 mi Calm Calm - N/A   Clear
10:35 PM 23.9 °F - 20.5 °F 87% 30.38 in 10.0 mi Calm Calm - N/A   Clear
10:55 PM 23.7 °F - 20.3 °F 87% 30.38 in 10.0 mi Calm Calm - N/A   Clear
11:15 PM 23.4 °F - 20.1 °F 87% 30.38 in 10.0 mi Calm Calm - N/A   Clear
11:35 PM 23.5 °F - 20.3 °F 87% 30.37 in 10.0 mi Calm Calm - N/A   Clear
11:55 PM 21.9 °F 17.2 °F 19.2 °F 89% 30.36 in 10.0 mi NE 3.5 mph - N/A   Clear